Regional Weather Roundup
Issued by NWS

Home | Current Version | Previous Version | Graphics & Text | Print | Product List | Glossary On
Versions: 1 2 3 4 5 6 7 8 9 10 11 12 13 14 15 16 17 18 19 20 21 22 23 24 25 26 27 28 29 30 31 32 33 34 35 36 37 38 39 40 41 42 43 44 45 46 47 48 49 50
000
ASUS45 KABQ 041210
RWRNM
WEATHER ROUNDUP FOR NEW MEXICO
NATIONAL WEATHER SERVICE ALBUQUERQUE NM
600 AM MDT MON MAY 04 2015

NOTE: "FAIR" MEANS FEW OR NO CLOUDS BELOW 12,000 FEET AGL WITH NO
       SIGNIFICANT WEATHER OR OBSTRUCTIONS TO VISION.

      THIS PRODUCT IS RELEASED AS TWO VERSIONS.  ONE VERSION NEAR
      THE TOP OF THE HOUR CONTAINING PRELIMINARY DATA FROM ALBUQUERQUE
      AND OTHER STATIONS.  A FINAL VERSION WITH ADDITIONAL DATA IS
      ISSUED ABOUT 10 MINUTES AFTER THE HOUR.

NMZ501-503-504-510>518-041300-
NORTHWEST PLATEAU/NORTHCENTRAL MOUNTAINS

CITY           SKY/WX    TMP DP  RH WIND       PRES   REMARKS
FARMINGTON     MOCLDY    49  39  68 E8        30.02R
6HR MIN TEMP:  48; 6HR MAX TEMP:  57;

LOS ALAMOS     MOCLDY    49  37  64 W7        30.12S
SANTA FE       MOCLDY    51  40  65 SW8       30.08R
6HR MIN TEMP:  48; 6HR MAX TEMP:  54; 6HR PCP:  0.01;

TAOS           PTCLDY    37  28  70 NE3       30.14R
ANGEL FIRE     FOG       35  34  97 CALM      30.20R VSB 1/2

$$
NMZ402-403-502-505>509-041300-
WESTCENTRAL MOUNTAINS/SOUTHWEST MOUNTAINS

CITY           SKY/WX    TMP DP  RH WIND       PRES   REMARKS
GALLUP         CLOUDY    48  39  71 SE6       30.04F
6HR MIN TEMP:  47; 6HR MAX TEMP:  52; 6HR PCP: TRACE;

GRANTS         CLEAR     37  33  89 CALM      30.09R
SILVER CITY      N/A     59  36  41 SE9       30.02R

$$
NMZ407-409-411-412-041300-
SOUTHERN DESERTS

CITY           SKY/WX    TMP DP  RH WIND       PRES   REMARKS
LORDSBURG      CLOUDY    61  36  39 S6        29.95R
DEMING         CLOUDY    60  43  53 NE5       29.96R
6HR MIN TEMP:  55; 6HR MAX TEMP:  66; 6HR PCP: TRACE;

LAS CRUCES     PTCLDY    55  45  68 NW3       29.95S
HOLLOMAN AFB   MOCLDY    61  49  63 N6        29.92R
ALAMOGORDO     CLOUDY    59  46  63 S7        29.94R
T OR C         MOCLDY    57  36  45 W8        29.98S
6HR MIN TEMP:  57; 6HR MAX TEMP:  65; 6HR PCP: TRACE;


$$
NMZ519>523-041300-
CENTRAL VALLEYS/CENTRAL HIGHLANDS

CITY           SKY/WX    TMP DP  RH WIND       PRES   REMARKS
ALBUQUERQUE    MOCLDY    57  42  57 W6        30.02R
6HR MIN TEMP:  56; 6HR MAX TEMP:  62; 6HR PCP:  0.01;

DOUBLE EAGLE   MOCLDY    50  39  66 NW7       30.05R
MORIARTY ARPT  FAIR      44  36  75 E8        30.10R
6HR MIN TEMP:  42; 6HR MAX TEMP:  52;

CLINES CORNERS PTCLDY    48  38  68 E6        30.09R
6HR MIN TEMP:  47; 6HR MAX TEMP:  57; 6HR PCP: TRACE;

BELEN          CLOUDY    56  38  49 SW5       30.04R
6HR MIN TEMP:  53; 6HR MAX TEMP:  61;

SOCORRO        FAIR      57  40  54 NW7       30.01R
6HR MIN TEMP:  56; 6HR MAX TEMP:  64;


$$
NMZ524>526-539-540-041300-
SOUTHCENTRAL MOUNTAINS

CITY           SKY/WX    TMP DP  RH WIND       PRES   REMARKS
RUIDOSO        RAIN      46  45  93 NW6       30.15R

$$
NMZ527>531-041300-
NORTHEAST HIGHLANDS/NORTHEAST PLAINS

CITY           SKY/WX    TMP DP  RH WIND       PRES   REMARKS
LAS VEGAS      PTCLDY    41  36  82 N7        30.12R
6HR MIN TEMP:  40; 6HR MAX TEMP:  51;

RATON          PTCLDY    44  39  82 N9        30.09R
6HR MIN TEMP:  40; 6HR MAX TEMP:  51;

CLAYTON        MOCLDY    52  45  77 NW10      30.02R
6HR MIN TEMP:  52; 6HR MAX TEMP:  61; 6HR PCP:  0.01;


$$
NMZ532>537-041300-
EASTCENTRAL PLAINS

CITY           SKY/WX    TMP DP  RH WIND       PRES   REMARKS
TUCUMCARI        N/A     52  48  86 N6        29.98R
6HR MIN TEMP:  52; 6HR MAX TEMP:  63; 6HR PCP: TRACE;

CANNON AFB     PTCLDY    53  49  87 E9        30.01R
6HR MIN TEMP:  51; 6HR MAX TEMP:  63; 6HR PCP: TRACE;

CLOVIS AIRPORT PTCLDY    50  46  87 E6        30.01R

$$
NMZ028-029-538-041300-
SOUTHEAST PLAINS

CITY           SKY/WX    TMP DP  RH WIND       PRES   REMARKS
ROSWELL        PTCLDY    54  47  77 NW3       29.95R
6HR MIN TEMP:  54; 6HR MAX TEMP:  63;

ARTESIA        MOCLDY    57  50  77 S6        29.94S
CARLSBAD       CLOUDY    61  53  75 NE5       29.91R
6HR MIN TEMP:  60; 6HR MAX TEMP:  65;

HOBBS          CLEAR     57  57 100 SE3       29.98R


$$


USA.gov is the U.S. government's official web portal to all federal, state and local government web resources and services.